#timestamp,LO_Frequency,Hit,StdDev 
1555617615.9,286046992.3,N
1555617635.7,286046992.5,N
1555617655.5,286046991.1,N
1555617675.4,286046986.7,N
1555617695.2,286046988.1,N
1555617715.1,286046985.5,N
1555617716.0,286046985.5,N
1555617735.8,286046986.8,N
1555617755.6,286046987.4,N
1555617775.5,286046983.8,N
1555617795.3,286046987.0,N
1555617815.1,286046991.8,N
1555617835.9,286046996.8,N
1555617855.7,286047002.4,N
1555617875.6,286047006.2,N
1555617895.4,286047010.5,N
1555617915.2,286047009.4,N
1555617935.1,286047013.9,N
1555617936.0,286047013.9,N
1555617955.8,286047014.3,N
1555617975.7,286047017.9,N
1555617995.5,286047021.7,N
1555618015.3,286047024.9,N
1555618035.2,286047024.1,N
1555618055.9,286047027.2,N
1555618075.7,286047032.2,N
1555618095.6,286047037.0,N
1555618115.4,286047037.3,N
1555618135.3,286047040.1,N
1555618155.1,286047041.0,N
1555618156.0,286047041.0,N
1555618175.8,286047043.0,N
1555618195.7,286047049.3,N
1555618215.5,286047057.4,N
1555618235.3,286047061.3,N
1555618255.2,286047064.7,N
1555618275.0,286047062.2,N
1555618275.9,286047062.2,N
1555618295.8,286047061.9,N
1555618315.6,286047057.8,N
1555618335.4,286047057.2,N
1555618355.3,286047051.6,N
1555618375.1,286047050.8,N
1555618395.8,286047050.0,N
1555618415.7,286047053.3,N
1555618435.5,286047054.9,Y
1555618455.4,286047008.7,P
1555618475.2,286047008.5,N
1555618495.0,286047007.7,N
1555618495.9,286047007.7,N
1555618515.8,286047009.0,N
1555618535.6,286047009.2,N
1555618555.5,286047003.0,N
1555618575.3,286046996.5,N
1555618595.1,286046998.7,N
1555618615.9,286046994.1,N
1555618635.7,286046996.4,N
1555618655.5,286046993.9,N
1555618675.4,286046992.1,N
1555618695.2,286046992.7,N
1555618715.1,286046994.4,N
1555618716.0,286046994.4,N
1555618735.8,286046991.0,N
1555618755.6,286046993.1,N
1555618775.5,286046990.2,N
1555618795.3,286046992.3,N
1555618815.1,286046992.8,N
1555618835.9,286046989.2,N
1555618855.7,286046988.3,N
1555618875.6,286046990.2,N
1555618895.4,286046986.6,N
1555618915.2,286046986.1,N
1555618935.1,286046984.3,N
1555618936.0,286046984.3,N
1555618955.8,286046986.6,N
1555618975.7,286046988.8,N
1555618995.5,286046991.6,N
1555619015.3,286046992.0,N
1555619035.2,286046994.8,N
1555619055.0,286046992.8,N
1555619055.9,286046992.8,N
1555619075.8,286046992.6,N
1555619095.6,286046988.4,N
1555619115.4,286046986.4,Y
1555619135.3,286046998.0,P
1555619155.1,286046998.1,N
1555619175.8,286046996.5,N
1555619195.7,286046998.0,N
1555619215.5,286046998.0,N
1555619235.4,286046996.0,N
1555619255.2,286046990.0,Y
1555619275.0,286046994.5,P
1555619275.9,286046994.5,P
1555619295.8,286046988.6,P
1555619315.6,286046987.0,Y
1555619335.5,286046990.9,P
1555619355.3,286046993.6,P
1555619375.1,286046997.6,N
1555619395.9,286046990.7,Y
1555619415.7,286046992.1,P
1555619435.5,286046992.8,P
1555619455.4,286046990.9,P
1555619475.2,286046987.4,Y
1555619495.1,286046993.8,P
1555619496.0,286046993.8,P
1555619515.8,286046998.9,N
1555619535.6,286046998.1,N
1555619555.5,286047001.0,N
1555619575.3,286046996.9,N
1555619595.2,286047003.0,N
1555619615.9,286047001.5,N
1555619635.7,286047003.2,N
1555619655.6,286047007.5,N
1555619675.4,286047008.4,N
1555619695.2,286047008.1,N
1555619715.1,286047009.7,N
1555619716.0,286047009.7,N
1555619735.8,286047007.9,N
1555619755.7,286047011.1,N
1555619775.5,286047012.0,N
1555619795.3,286047011.5,N
1555619815.2,286047012.6,N
1555619835.0,286047017.1,N
1555619835.9,286047017.1,N
1555619855.8,286047016.3,N
1555619875.6,286047014.7,N
1555619895.4,286047013.3,N
1555619915.3,286047015.6,N
1555619935.1,286047014.5,N
1555619955.8,286047018.8,N
1555619975.7,286047015.5,N
1555619995.5,286047014.9,N
1555620015.4,286047017.6,N
1555620035.2,286047020.4,N
1555620055.0,286047022.3,Y
1555620055.9,286047022.3,P
1555620075.8,286047016.3,N
1555620095.6,286047016.7,P
1555620115.5,286047014.6,Y
1555620135.3,286046999.6,P
1555620155.1,286046995.7,N
1555620175.9,286046997.2,N
1555620195.7,286047000.6,N
1555620215.5,286046998.5,N
1555620235.4,286046998.1,N
1555620255.2,286047003.1,N
1555620275.1,286047005.3,N
1555620276.0,286047005.3,N
1555620295.8,286047006.3,N
1555620315.6,286047005.8,N
1555620335.5,286047006.8,N
1555620355.3,286047010.6,N
1555620375.1,286047007.1,N
1555620395.9,286047007.1,N
1555620415.7,286047006.7,N
1555620435.6,286047011.0,N
1555620455.4,286047012.1,N
1555620475.2,286047015.1,N
1555620495.1,286047014.7,N
1555620496.0,286047014.7,N
1555620515.8,286047014.9,N
1555620535.7,286047014.6,N
1555620555.5,286047016.0,N
1555620575.3,286047020.1,Y
1555620595.2,286047004.5,P
1555620615.0,286047005.4,P
1555620615.9,286047005.4,P
1555620635.7,286047006.4,Y
1555620655.6,286046999.3,P
1555620675.4,286047000.7,N
1555620695.3,286047002.8,N
1555620715.1,286047001.1,N
1555620716.0,286047001.1,N
1555620735.8,286047004.4,N
1555620755.7,286047001.3,N
1555620775.5,286046996.7,N
1555620795.4,286047000.4,N
1555620815.2,286046999.9,N
1555620835.0,286047004.0,N
1555620835.9,286047004.0,N
1555620855.8,286047002.7,N
1555620875.6,286047000.0,N
1555620895.4,286047002.7,N
1555620915.3,286046998.8,N
1555620935.1,286047004.3,N
1555620955.9,286047002.7,N
1555620975.7,286047002.6,N
1555620995.5,286047002.0,N
1555621015.4,286047003.7,N
1555621035.2,286047005.8,N
1555621055.1,286047008.4,Y
1555621056.0,286047008.4,P
1555621075.8,286047005.2,N
1555621095.6,286047003.7,N
1555621115.5,286047006.2,N
1555621135.3,286047007.6,Y
1555621155.2,286046997.2,P
1555621175.9,286046996.5,N
1555621195.7,286046998.7,N
